Time,TemperatureF,DewpointF,PressureIn,WindDirection,WindDirectionDegrees,WindSpeedMPH,WindSpeedGustMPH,Humidity,HourlyPrecipIn,Conditions,Clouds,dailyrainin,SoftwareType,DateUTC
2013-03-08 00:01:00,35.0,24.0,-100.00,North,0,0.0,1.0,62,-99.99,,,-99.99,,2013-03-08 07:01:00,
2013-03-08 00:11:00,34.0,24.0,-100.00,WSW,250,2.0,4.0,67,-99.99,,,-99.99,,2013-03-08 07:11:00,
2013-03-08 00:21:00,34.0,24.0,-100.00,SSW,193,1.0,2.0,65,-99.99,,,-99.99,,2013-03-08 07:21:00,
2013-03-08 00:31:00,34.0,24.0,-100.00,SSW,193,1.0,2.0,65,-99.99,,,-99.99,,2013-03-08 07:31:00,
2013-03-08 00:41:00,34.0,24.0,-100.00,SSW,193,1.0,2.0,65,-99.99,,,-99.99,,2013-03-08 07:41:00,
2013-03-08 01:31:00,35.0,24.0,-100.00,SSW,197,2.0,3.0,62,-99.99,,,-99.99,,2013-03-08 08:31:00,
2013-03-08 01:41:00,33.0,25.0,-100.00,West,266,4.0,4.0,71,-99.99,,,-99.99,,2013-03-08 08:41:00,
2013-03-08 01:52:00,36.0,25.0,-100.00,West,263,8.0,10.0,64,-99.99,,,-99.99,,2013-03-08 08:52:00,
2013-03-08 02:02:00,36.0,25.0,-100.00,West,263,8.0,10.0,64,-99.99,,,-99.99,,2013-03-08 09:02:00,
2013-03-08 02:11:00,35.0,25.0,-100.00,West,260,8.0,8.0,65,-99.99,,,-99.99,,2013-03-08 09:11:00,
2013-03-08 02:21:00,35.0,25.0,-100.00,WSW,256,7.0,7.0,67,-99.99,,,-99.99,,2013-03-08 09:21:00,
2013-03-08 02:31:00,35.0,25.0,-100.00,West,259,6.0,7.0,68,-99.99,,,-99.99,,2013-03-08 09:31:00,
2013-03-08 02:42:00,34.0,25.0,-100.00,West,264,5.0,5.0,68,-99.99,,,-99.99,,2013-03-08 09:42:00,
2013-03-08 02:51:00,35.0,25.0,-100.00,West,266,5.0,8.0,68,-99.99,,,-99.99,,2013-03-08 09:51:00,
2013-03-08 03:01:00,34.0,25.0,-100.00,West,269,7.0,7.0,68,-99.99,,,-99.99,,2013-03-08 10:01:00,
2013-03-08 03:11:00,35.0,26.0,-100.00,West,273,8.0,9.0,68,-99.99,,,-99.99,,2013-03-08 10:11:00,
2013-03-08 03:21:00,35.0,26.0,-100.00,West,273,8.0,9.0,68,-99.99,,,-99.99,,2013-03-08 10:21:00,
2013-03-08 03:31:00,35.0,25.0,-100.00,SSW,209,2.0,3.0,66,-99.99,,,-99.99,,2013-03-08 10:31:00,
2013-03-08 03:41:00,36.0,25.0,-100.00,South,179,2.0,4.0,65,-99.99,,,-99.99,,2013-03-08 10:41:00,
2013-03-08 03:51:00,35.0,26.0,-100.00,SSE,157,6.0,6.0,69,-99.99,,,-99.99,,2013-03-08 10:51:00,
2013-03-08 04:01:00,34.0,26.0,-100.00,SSE,151,2.0,4.0,71,-99.99,,,-99.99,,2013-03-08 11:01:00,
2013-03-08 04:11:00,35.0,26.0,-100.00,NNE,27,1.0,2.0,70,-99.99,,,-99.99,,2013-03-08 11:11:00,
2013-03-08 04:21:00,34.0,26.0,-100.00,SSE,148,0.0,4.0,71,-99.99,,,-99.99,,2013-03-08 11:21:00,
2013-03-08 04:32:00,35.0,26.0,-100.00,SSW,210,2.0,4.0,70,-99.99,,,-99.99,,2013-03-08 11:32:00,
2013-03-08 04:41:00,35.0,26.0,-100.00,SSE,168,3.0,4.0,68,-99.99,,,-99.99,,2013-03-08 11:41:00,
2013-03-08 04:52:00,35.0,25.0,-100.00,South,175,2.0,4.0,67,-99.99,,,-99.99,,2013-03-08 11:52:00,
2013-03-08 05:01:00,35.0,25.0,-100.00,South,175,2.0,4.0,67,-99.99,,,-99.99,,2013-03-08 12:01:00,
2013-03-08 05:11:00,34.0,25.0,-100.00,ENE,77,3.0,4.0,71,-99.99,,,-99.99,,2013-03-08 12:11:00,
2013-03-08 05:22:00,33.0,26.0,-100.00,ENE,75,5.0,6.0,73,-99.99,,,-99.99,,2013-03-08 12:22:00,
2013-03-08 05:32:00,33.0,26.0,-100.00,East,94,3.0,4.0,74,-99.99,,,-99.99,,2013-03-08 12:32:00,
2013-03-08 05:42:00,33.0,26.0,-100.00,East,97,4.0,4.0,74,-99.99,,,-99.99,,2013-03-08 12:42:00,
2013-03-08 05:52:00,34.0,26.0,-100.00,ESE,107,5.0,5.0,73,-99.99,,,-99.99,,2013-03-08 12:52:00,
2013-03-08 06:01:00,34.0,26.0,-100.00,East,88,2.0,2.0,74,-99.99,,,-99.99,,2013-03-08 13:01:00,
2013-03-08 06:11:00,34.0,26.0,-100.00,East,95,2.0,3.0,74,-99.99,,,-99.99,,2013-03-08 13:11:00,
2013-03-08 06:21:00,35.0,26.0,-100.00,SE,124,4.0,4.0,69,-99.99,,,-99.99,,2013-03-08 13:21:00,
2013-03-08 06:32:00,35.0,26.0,-100.00,NNE,16,1.0,2.0,71,-99.99,,,-99.99,,2013-03-08 13:32:00,
2013-03-08 06:42:00,35.0,26.0,-100.00,East,94,4.0,6.0,70,-99.99,,,-99.99,,2013-03-08 13:42:00,
2013-03-08 06:52:00,33.0,27.0,-100.00,NE,47,2.0,5.0,75,-99.99,,,-99.99,,2013-03-08 13:52:00,
2013-03-08 07:02:00,33.0,27.0,-100.00,ESE,118,2.0,4.0,76,-99.99,,,-99.99,,2013-03-08 14:02:00,
2013-03-08 07:11:00,33.0,26.0,-100.00,ENE,72,4.0,4.0,75,-99.99,,,-99.99,,2013-03-08 14:11:00,
2013-03-08 07:21:00,33.0,27.0,-100.00,East,87,5.0,5.0,77,-99.99,,,-99.99,,2013-03-08 14:21:00,
2013-03-08 07:32:00,33.0,27.0,-100.00,ESE,108,4.0,5.0,79,-99.99,,,-99.99,,2013-03-08 14:32:00,
2013-03-08 07:42:00,33.0,27.0,-100.00,ESE,108,4.0,5.0,79,-99.99,,,-99.99,,2013-03-08 14:42:00,
2013-03-08 07:52:00,32.0,28.0,-100.00,ENE,67,4.0,4.0,83,-99.99,,,-99.99,,2013-03-08 14:52:00,
2013-03-08 08:02:00,32.0,28.0,-100.00,ENE,67,4.0,4.0,83,-99.99,,,-99.99,,2013-03-08 15:02:00,
2013-03-08 08:11:00,33.0,29.0,-100.00,ESE,104,2.0,3.0,84,-99.99,,,-99.99,,2013-03-08 15:11:00,
2013-03-08 08:21:00,34.0,29.0,-100.00,NNE,26,1.0,2.0,83,-99.99,,,-99.99,,2013-03-08 15:21:00,
2013-03-08 08:31:00,34.0,29.0,-100.00,NNE,26,1.0,2.0,83,-99.99,,,-99.99,,2013-03-08 15:31:00,
2013-03-08 08:42:00,34.0,29.0,-100.00,NE,44,3.0,3.0,82,-99.99,,,-99.99,,2013-03-08 15:42:00,
2013-03-08 08:52:00,34.0,29.0,-100.00,NE,44,3.0,3.0,82,-99.99,,,-99.99,,2013-03-08 15:52:00,
2013-03-08 09:01:00,33.0,30.0,-100.00,East,100,4.0,5.0,86,-99.99,,,-99.99,,2013-03-08 16:01:00,
2013-03-08 09:11:00,33.0,30.0,-100.00,East,100,4.0,5.0,86,-99.99,,,-99.99,,2013-03-08 16:11:00,
2013-03-08 09:21:00,34.0,30.0,-100.00,ESE,102,3.0,4.0,85,-99.99,,,-99.99,,2013-03-08 16:21:00,
2013-03-08 09:31:00,34.0,30.0,-100.00,East,79,3.0,4.0,82,-99.99,,,-99.99,,2013-03-08 16:31:00,
2013-03-08 09:41:00,36.0,30.0,-100.00,East,82,4.0,5.0,79,-99.99,,,-99.99,,2013-03-08 16:41:00,
2013-03-08 09:51:00,36.0,29.0,-100.00,ENE,78,5.0,5.0,77,-99.99,,,-99.99,,2013-03-08 16:51:00,
2013-03-08 10:02:00,36.0,30.0,-100.00,East,84,4.0,5.0,77,-99.99,,,-99.99,,2013-03-08 17:02:00,
2013-03-08 10:11:00,36.0,30.0,-100.00,East,84,4.0,5.0,77,-99.99,,,-99.99,,2013-03-08 17:11:00,
2013-03-08 10:21:00,37.0,30.0,-100.00,ENE,72,4.0,5.0,76,-99.99,,,-99.99,,2013-03-08 17:21:00,
2013-03-08 10:31:00,37.0,30.0,-100.00,East,92,5.0,7.0,74,-99.99,,,-99.99,,2013-03-08 17:31:00,
2013-03-08 10:41:00,38.0,30.0,-100.00,ENE,75,5.0,6.0,74,-99.99,,,-99.99,,2013-03-08 17:41:00,
2013-03-08 10:52:00,38.0,30.0,-100.00,ENE,77,4.0,5.0,72,-99.99,,,-99.99,,2013-03-08 17:52:00,
2013-03-08 11:01:00,38.0,29.0,-100.00,East,80,7.0,8.0,70,-99.99,,,-99.99,,2013-03-08 18:01:00,
2013-03-08 11:11:00,38.0,29.0,-100.00,East,80,7.0,8.0,70,-99.99,,,-99.99,,2013-03-08 18:11:00,
2013-03-08 11:21:00,38.0,29.0,-100.00,ENE,71,7.0,8.0,68,-99.99,,,-99.99,,2013-03-08 18:21:00,
2013-03-08 11:31:00,38.0,29.0,-100.00,ENE,71,7.0,8.0,68,-99.99,,,-99.99,,2013-03-08 18:31:00,
2013-03-08 11:42:00,39.0,31.0,-100.00,ENE,64,8.0,9.0,72,-99.99,,,-99.99,,2013-03-08 18:42:00,
2013-03-08 11:51:00,39.0,30.0,-100.00,ENE,70,6.0,7.0,71,-99.99,,,-99.99,,2013-03-08 18:51:00,
2013-03-08 12:01:00,39.0,30.0,-100.00,East,98,7.0,8.0,70,-99.99,,,-99.99,,2013-03-08 19:01:00,
2013-03-08 12:11:00,38.0,30.0,-100.00,East,99,7.0,9.0,73,-99.99,,,-99.99,,2013-03-08 19:11:00,
2013-03-08 12:21:00,38.0,30.0,-100.00,East,99,7.0,9.0,73,-99.99,,,-99.99,,2013-03-08 19:21:00,
2013-03-08 12:31:00,38.0,31.0,-100.00,ENE,66,8.0,9.0,74,-99.99,,,-99.99,,2013-03-08 19:31:00,
2013-03-08 12:41:00,38.0,31.0,-100.00,East,81,6.0,9.0,75,-99.99,,,-99.99,,2013-03-08 19:41:00,
2013-03-08 12:51:00,38.0,31.0,-100.00,East,80,6.0,9.0,77,-99.99,,,-99.99,,2013-03-08 19:51:00,
2013-03-08 13:01:00,38.0,32.0,-100.00,East,95,6.0,8.0,78,-99.99,,,-99.99,,2013-03-08 20:01:00,
2013-03-08 13:11:00,38.0,32.0,-100.00,East,95,6.0,8.0,78,-99.99,,,-99.99,,2013-03-08 20:11:00,
2013-03-08 13:21:00,38.0,31.0,-100.00,East,97,6.0,6.0,75,-99.99,,,-99.99,,2013-03-08 20:21:00,
2013-03-08 13:31:00,38.0,31.0,-100.00,East,90,8.0,9.0,75,-99.99,,,-99.99,,2013-03-08 20:31:00,
2013-03-08 13:41:00,38.0,30.0,-100.00,ENE,78,7.0,9.0,73,-99.99,,,-99.99,,2013-03-08 20:41:00,
2013-03-08 13:52:00,38.0,31.0,-100.00,East,83,8.0,8.0,74,-99.99,,,-99.99,,2013-03-08 20:52:00,
2013-03-08 14:01:00,38.0,31.0,-100.00,East,83,8.0,8.0,74,-99.99,,,-99.99,,2013-03-08 21:01:00,
2013-03-08 14:11:00,38.0,31.0,-100.00,ENE,67,7.0,10.0,73,-99.99,,,-99.99,,2013-03-08 21:11:00,
2013-03-08 14:21:00,38.0,30.0,-100.00,East,85,7.0,9.0,73,-99.99,,,-99.99,,2013-03-08 21:21:00,
2013-03-08 14:32:00,37.0,31.0,-100.00,East,83,6.0,8.0,75,-99.99,,,-99.99,,2013-03-08 21:32:00,
2013-03-08 14:41:00,37.0,31.0,-100.00,East,83,6.0,8.0,75,-99.99,,,-99.99,,2013-03-08 21:41:00,
2013-03-08 14:51:00,36.0,31.0,-100.00,ESE,110,8.0,10.0,83,-99.99,,,-99.99,,2013-03-08 21:51:00,
2013-03-08 15:01:00,35.0,32.0,-100.00,SE,124,8.0,10.0,89,-99.99,,,-99.99,,2013-03-08 22:01:00,
2013-03-08 15:11:00,35.0,33.0,-100.00,ESE,104,7.0,8.0,91,-99.99,,,-99.99,,2013-03-08 22:11:00,
2013-03-08 15:21:00,35.0,33.0,-100.00,ESE,104,7.0,8.0,91,-99.99,,,-99.99,,2013-03-08 22:21:00,
2013-03-08 15:32:00,35.0,33.0,-100.00,East,95,5.0,7.0,92,-99.99,,,-99.99,,2013-03-08 22:32:00,
2013-03-08 15:41:00,34.0,33.0,-100.00,East,93,6.0,8.0,94,-99.99,,,-99.99,,2013-03-08 22:41:00,
2013-03-08 15:52:00,34.0,33.0,-100.00,East,100,8.0,9.0,95,-99.99,,,-99.99,,2013-03-08 22:52:00,
2013-03-08 16:01:00,33.0,33.0,-100.00,East,98,5.0,6.0,96,-99.99,,,-99.99,,2013-03-08 23:01:00,
2013-03-08 16:11:00,33.0,32.0,-100.00,East,85,7.0,7.0,97,-99.99,,,-99.99,,2013-03-08 23:11:00,
2013-03-08 16:21:00,33.0,32.0,-100.00,East,85,7.0,7.0,97,-99.99,,,-99.99,,2013-03-08 23:21:00,
2013-03-08 16:31:00,33.0,32.0,-100.00,East,85,7.0,7.0,97,-99.99,,,-99.99,,2013-03-08 23:31:00,
2013-03-08 16:41:00,33.0,32.0,-100.00,East,88,4.0,5.0,98,-99.99,,,-99.99,,2013-03-08 23:41:00,
2013-03-08 16:52:00,32.0,32.0,-100.00,ESE,108,7.0,9.0,98,-99.99,,,-99.99,,2013-03-08 23:52:00,
2013-03-08 17:01:00,32.0,32.0,-100.00,East,100,7.0,9.0,99,-99.99,,,-99.99,,2013-03-09 00:01:00,
2013-03-08 17:11:00,32.0,32.0,-100.00,East,92,7.0,9.0,99,-99.99,,,-99.99,,2013-03-09 00:11:00,
2013-03-08 17:21:00,32.0,32.0,-100.00,East,92,8.0,9.0,99,-99.99,,,-99.99,,2013-03-09 00:21:00,
2013-03-08 17:31:00,32.0,32.0,-100.00,East,92,8.0,9.0,99,-99.99,,,-99.99,,2013-03-09 00:31:00,
2013-03-08 17:41:00,32.0,32.0,-100.00,ESE,111,7.0,9.0,99,-99.99,,,-99.99,,2013-03-09 00:41:00,
2013-03-08 17:50:00,32.0,32.0,-100.00,East,99,5.0,7.0,99,-99.99,,,-99.99,,2013-03-09 00:50:00,
2013-03-08 17:51:00,32.0,32.0,-100.00,ESE,111,7.0,9.0,99,-99.99,,,-99.99,,2013-03-09 00:51:00,
2013-03-08 18:01:00,32.0,32.0,-100.00,ESE,103,7.0,8.0,99,-99.99,,,-99.99,,2013-03-09 01:01:00,
2013-03-08 18:12:00,32.0,32.0,-100.00,East,99,5.0,7.0,99,-99.99,,,-99.99,,2013-03-09 01:12:00,
2013-03-08 18:21:00,32.0,32.0,-100.00,East,99,5.0,7.0,99,-99.99,,,-99.99,,2013-03-09 01:21:00,
2013-03-08 18:31:00,32.0,32.0,-100.00,East,99,5.0,7.0,99,-99.99,,,-99.99,,2013-03-09 01:31:00,
2013-03-08 18:41:00,32.0,32.0,-100.00,East,99,5.0,7.0,99,-99.99,,,-99.99,,2013-03-09 01:41:00,
2013-03-08 20:11:00,32.0,32.0,-100.00,NE,45,8.0,12.0,100,-99.99,,,-99.99,,2013-03-09 03:11:00,
2013-03-08 20:21:00,32.0,32.0,-100.00,NE,45,8.0,12.0,100,-99.99,,,-99.99,,2013-03-09 03:21:00,
2013-03-08 20:31:00,32.0,32.0,-100.00,NE,55,10.0,14.0,100,-99.99,,,-99.99,,2013-03-09 03:31:00,
2013-03-08 20:41:00,32.0,32.0,-100.00,NE,49,9.0,14.0,100,-99.99,,,-99.99,,2013-03-09 03:41:00,
2013-03-08 20:52:00,32.0,32.0,-100.00,NE,49,9.0,14.0,100,-99.99,,,-99.99,,2013-03-09 03:52:00,
2013-03-08 21:01:00,32.0,32.0,-100.00,NE,47,10.0,15.0,100,-99.99,,,-99.99,,2013-03-09 04:01:00,
2013-03-08 21:11:00,32.0,32.0,-100.00,NE,43,7.0,11.0,100,-99.99,,,-99.99,,2013-03-09 04:11:00,
2013-03-08 21:21:00,32.0,32.0,-100.00,NE,45,9.0,11.0,100,-99.99,,,-99.99,,2013-03-09 04:21:00,
2013-03-08 21:31:00,32.0,32.0,-100.00,NE,48,9.0,12.0,100,-99.99,,,-99.99,,2013-03-09 04:31:00,
2013-03-08 21:41:00,32.0,32.0,-100.00,NE,48,9.0,12.0,100,-99.99,,,-99.99,,2013-03-09 04:41:00,
2013-03-08 21:51:00,32.0,32.0,-100.00,NE,52,9.0,11.0,100,-99.99,,,-99.99,,2013-03-09 04:51:00,
2013-03-08 22:01:00,32.0,32.0,-100.00,NE,52,9.0,11.0,100,-99.99,,,-99.99,,2013-03-09 05:01:00,
2013-03-08 22:11:00,32.0,32.0,-100.00,NE,49,8.0,9.0,100,-99.99,,,-99.99,,2013-03-09 05:11:00,
2013-03-08 22:21:00,32.0,32.0,-100.00,NE,41,8.0,10.0,100,-99.99,,,-99.99,,2013-03-09 05:21:00,
2013-03-08 22:31:00,32.0,32.0,-100.00,NNE,29,10.0,12.0,100,-99.99,,,-99.99,,2013-03-09 05:31:00,
2013-03-08 22:42:00,32.0,32.0,-100.00,NNE,29,10.0,12.0,100,-99.99,,,-99.99,,2013-03-09 05:42:00,
2013-03-08 22:52:00,32.0,32.0,-100.00,NE,49,9.0,11.0,100,-99.99,,,-99.99,,2013-03-09 05:52:00,
2013-03-08 23:01:00,32.0,32.0,-100.00,NE,49,9.0,11.0,100,-99.99,,,-99.99,,2013-03-09 06:01:00,
2013-03-08 23:11:00,32.0,32.0,-100.00,ENE,57,7.0,10.0,100,-99.99,,,-99.99,,2013-03-09 06:11:00,
2013-03-08 23:22:00,32.0,32.0,-100.00,NE,46,9.0,11.0,100,-99.99,,,-99.99,,2013-03-09 06:22:00,
2013-03-08 23:31:00,32.0,32.0,-100.00,NE,43,9.0,13.0,100,-99.99,,,-99.99,,2013-03-09 06:31:00,
2013-03-08 23:42:00,32.0,32.0,-100.00,NE,43,9.0,13.0,100,-99.99,,,-99.99,,2013-03-09 06:42:00,
2013-03-08 23:51:00,32.0,32.0,-100.00,NE,40,9.0,11.0,100,-99.99,,,-99.99,,2013-03-09 06:51:00,